College Station, TX

9:06 PM CST on February 20, 2017 (GMT -0600)
Easterwood

Weather History for KCLL - October, 2012

Change the Weather History Date:

Tuesday, October 16, 2012

  Actual Average Record
Temperature  
Mean Temperature 65 °F 71 °F  
Max Temperature 70 °F 82 °F 95 °F (1910)
Min Temperature 59 °F 60 °F 42 °F (1943)
Degree Days  
Heating Degree Days 0 1  
Month to date heating degree days 12 6  
Since 1 July heating degree days 12 8  
Cooling Degree Days 0 7  
Month to date cooling degree days 133 136  
Year to date cooling degree days 3392 2932  
Growing Degree Days 15 (Base 50)    
Moisture  
Dew Point 60 °F    
Average Humidity 87    
Maximum Humidity 100    
Minimum Humidity 73    
Precipitation  
Precipitation 0.44 in 0.17 in 13.39 in (1994)
Month to date precipitation 1.81 2.47  
Year to date precipitation 36.56 31.17  
Sea Level Pressure  
Sea Level Pressure 29.88 in    
Wind  
Wind Speed 6 mph (SSE)    
Max Wind Speed 15 mph    
Max Gust Speed 18 mph    
Visibility 9 miles    
Events Rain    
T = Trace of Precipitation, MM = Missing Value Source: NWS Daily Summary

Daily Weather History Graph

Daily Weather History Graph

Search for Another Location

Airport or City:

Trip Planner

Search our weather history database for the weather conditions in past years. The results will help you decide how hot, cold, wet, or windy it might be!

Date:

Astronomy

Oct. 16, 2012 Rise Set
Actual Time 7:28 AM CDT 6:52 PM CDT
Civil Twilight 7:04 AM CDT 7:16 PM CDT
Nautical Twilight 6:36 AM CDT 7:44 PM CDT
Astronomical Twilight 6:08 AM CDT 8:12 PM CDT
Moon 8:44 AM CDT (10/16) 7:48 PM CDT (10/16)
Length of Visible Light 12h 12m
Length of Day
11h 23m
New Moon, 2% of the Moon is Illuminated
Oct 16
New Moon
Oct 21
First Quarter
Oct 29
Full
Nov 6
Last Quarter
Nov 13
New

Hourly Weather History & Observations

Time (CDT) Temp. Dew Point Humidity Pressure Visibility Wind Dir Wind Speed Gust Speed Precip Events Conditions
12:53 AM 63.0 °F 55.9 °F 78% 29.98 in 10.0 mi Calm Calm - N/A   Clear
1:53 AM 63.0 °F 55.0 °F 75% 29.96 in 10.0 mi Calm Calm - N/A   Clear
2:53 AM 62.1 °F 55.0 °F 78% 29.94 in 10.0 mi Calm Calm - N/A   Clear
3:53 AM 63.0 °F 55.0 °F 75% 29.93 in 10.0 mi Calm Calm - N/A   Clear
4:53 AM 61.0 °F 55.9 °F 83% 29.93 in 10.0 mi Calm Calm - N/A   Clear
5:53 AM 61.0 °F 55.9 °F 83% 29.93 in 10.0 mi Calm Calm - N/A   Clear
6:53 AM 62.6 °F 55.4 °F 77% 29.93 in 10.0 mi Calm Calm - N/A   Clear
7:53 AM 63.0 °F 55.9 °F 78% 29.92 in 10.0 mi Calm Calm - N/A   Clear
8:53 AM 64.0 °F 55.9 °F 75% 29.94 in 10.0 mi South 3.5 mph - N/A   Clear
9:53 AM 66.9 °F 57.0 °F 70% 29.95 in 10.0 mi ESE 3.5 mph - N/A   Overcast
10:53 AM 69.1 °F 57.9 °F 68% 29.94 in 10.0 mi SSE 4.6 mph - N/A   Overcast
11:53 AM 66.9 °F 61.0 °F 81% 29.92 in 8.0 mi South 10.4 mph - 0.01 in Rain Light Rain
12:53 PM 68.0 °F 62.1 °F 81% 29.92 in 10.0 mi SSE 4.6 mph - 0.01 in Rain Light Rain
1:53 PM 66.0 °F 64.0 °F 93% 29.89 in 5.0 mi South 9.2 mph - 0.07 in Rain Rain
2:53 PM 66.0 °F 64.0 °F 93% 29.86 in 6.0 mi South 5.8 mph - 0.08 in Rain Rain
3:53 PM 66.9 °F 64.0 °F 90% 29.84 in 7.0 mi South 12.7 mph 18.4 mph 0.04 in Rain Light Rain
4:53 PM 66.9 °F 64.9 °F 93% 29.84 in 8.0 mi South 5.8 mph - 0.03 in Rain Light Rain
5:53 PM 66.0 °F 64.0 °F 93% 29.83 in 8.0 mi South 6.9 mph - 0.05 in Rain Light Rain
6:53 PM 64.9 °F 63.0 °F 93% 29.81 in 7.0 mi SSE 12.7 mph - 0.13 in Rain Rain
7:53 PM 64.9 °F 63.0 °F 93% 29.81 in 10.0 mi South 10.4 mph - 0.02 in   Mostly Cloudy
8:19 PM 64.4 °F 62.6 °F 94% 29.82 in 10.0 mi SSE 15.0 mph - N/A   Overcast
8:53 PM 63.0 °F 62.1 °F 97% 29.81 in 10.0 mi SSE 9.2 mph - N/A   Overcast
9:33 PM 62.6 °F 62.6 °F 100% 29.81 in 10.0 mi SSE 8.1 mph - N/A   Scattered Clouds
9:53 PM 63.0 °F 62.1 °F 97% 29.80 in 10.0 mi SSE 8.1 mph - N/A   Clear
10:39 PM 62.6 °F 62.6 °F 100% 29.80 in 10.0 mi South 10.4 mph - N/A   Scattered Clouds
10:53 PM 63.0 °F 62.1 °F 97% 29.78 in 10.0 mi South 10.4 mph - N/A   Scattered Clouds
11:53 PM 63.0 °F 62.1 °F 97% 29.78 in 10.0 mi South 10.4 mph - N/A   Clear